Theta_e
294 293 293 292 292 291 291 290 289 289 288 288 288 287 287 287 286 286 286 286 286 286 286 286 286 286 286 286 286 286 286 286 286 286 287 287 287 286 286 286 286 286 286 286 286 286 286 286 286 286 286 286 286 285 285 285 285 284 284 284 283 283 283 282 281 281 282 283 282 282 282 281 281 281 280 279 279 279 279 279 279 279 278 278 278
294 294 294 293 292 292 292 291 290 289 289 289 288 288 288 287 287 286 286 286 286 286 286 285 285 285 285 286 286 286 286 286 286 286 286 287 286 286 286 286 286 286 286 286 286 286 286 286 286 286 286 286 285 285 285 285 285 284 284 284 284 283 283 282 282 281 281 282 282 282 281 281 280 280 280 279 279 279 279 279 279 278 278 278 278
295 294 294 294 293 293 292 292 291 290 289 289 289 289 289 288 288 287 287 287 286 286 286 286 285 285 285 285 285 285 285 286 286 286 286 286 286 286 286 286 286 286 286 286 286 286 286 286 286 286 286 286 286 285 285 285 285 285 284 284 284 283 283 282 282 281 281 281 281 281 281 280 280 280 280 279 279 279 279 279 279 278 278 278 278
295 295 294 294 294 294 293 293 292 291 290 290 290 290 290 289 289 288 288 287 287 286 286 286 286 285 285 285 285 285 285 285 285 285 285 285 285 285 286 286 286 286 286 287 287 286 286 286 286 286 286 286 286 286 285 285 285 285 285 284 284 284 283 283 282 282 281 281 281 281 280 280 279 279 279 279 279 279 279 279 278 278 278 278 277
296 295 295 295 294 294 294 294 293 293 292 292 291 291 290 290 289 289 288 288 287 287 286 286 286 286 286 286 285 285 285 285 285 285 285 285 285 285 285 285 285 285 286 286 286 286 286 286 287 286 286 286 286 286 286 285 285 285 285 285 284 284 283 283 282 282 281 281 280 280 280 279 279 279 279 279 279 279 278 278 278 278 278 277 277
296 296 295 295 295 294 294 294 294 294 294 293 293 292 291 291 290 290 289 289 288 288 287 287 287 286 286 286 286 286 286 286 285 285 285 285 285 285 285 285 285 285 285 286 286 286 286 286 287 286 286 286 286 286 286 286 285 285 285 285 284 284 283 283 282 282 281 281 280 280 279 279 279 279 279 279 278 278 278 278 278 278 277 277 277
296 296 296 295 295 295 295 294 294 294 294 294 293 293 292 292 291 291 290 289 289 289 288 288 288 287 287 287 287 287 287 287 286 286 286 285 285 285 285 285 285 285 286 286 286 286 286 286 287 287 286 286 286 286 286 286 285 285 285 285 284 284 283 282 282 282 281 281 280 279 279 279 279 279 279 278 278 278 278 278 278 277 277 277 277
296 296 296 295 295 295 295 295 294 294 294 293 293 293 293 293 292 292 291 291 290 290 290 289 289 288 288 288 287 287 287 287 287 286 286 286 286 286 286 286 286 286 287 287 287 287 287 287 287 287 287 287 286 286 286 286 285 285 285 284 284 284 283 282 282 281 281 280 280 279 279 279 279 279 278 278 278 278 278 278 277 277 277 277 277
296 296 296 295 296 296 295 295 294 294 294 293 293 293 293 293 293 292 292 292 292 291 291 290 290 289 289 288 288 288 287 287 287 287 287 287 287 287 287 287 287 287 287 287 287 287 287 287 287 287 287 287 287 286 286 286 285 285 284 284 284 283 283 282 282 281 280 280 279 279 279 279 278 278 278 278 278 278 278 277 277 277 277 277 277
296 296 295 296 296 296 295 295 294 294 294 294 294 293 293 293 292 292 292 292 292 292 291 291 290 290 290 289 289 289 288 289 288 288 288 288 287 287 287 287 287 287 287 287 287 287 287 287 287 287 287 286 286 286 286 285 285 284 284 284 284 283 282 282 281 280 280 280 279 279 279 279 278 278 278 278 278 277 277 277 277 277 277 277 278
296 296 296 296 296 295 295 295 295 294 294 294 294 294 294 293 292 292 292 292 292 292 291 291 291 291 290 290 290 289 290 290 290 289 289 288 288 287 287 287 287 287 286 286 287 287 287 287 287 287 287 286 286 286 286 285 285 284 284 284 283 283 282 281 280 280 280 280 280 279 279 278 278 278 278 278 277 277 277 277 277 277 278 278 278
297 296 296 295 295 295 295 295 295 294 294 294 294 294 294 293 293 293 292 292 292 291 291 291 291 291 290 290 290 290 290 290 290 290 289 289 288 287 287 287 287 287 287 287 287 287 287 287 287 287 287 286 286 286 286 285 285 284 284 283 283 282 281 280 280 280 280 280 280 279 279 279 278 278 278 277 277 277 277 277 277 278 278 278 278
296 296 296 296 295 295 295 295 295 295 294 295 294 294 293 293 293 293 293 293 292 291 292 291 291 291 290 290 290 290 291 291 290 290 290 289 289 288 287 287 287 287 287 287 287 287 286 287 286 287 287 287 286 286 286 285 284 283 283 283 282 281 281 280 279 279 279 279 279 279 278 278 278 277 277 277 277 277 277 278 278 278 278 278 278
296 296 296 296 295 295 295 294 294 295 295 295 294 294 293 293 294 294 293 293 292 292 292 292 291 291 290 290 290 290 291 291 290 290 289 289 289 288 287 287 287 287 287 287 287 286 286 286 286 286 287 287 286 286 285 285 284 283 282 282 281 281 280 280 279 278 278 278 278 278 278 278 278 277 277 277 277 278 278 278 278 278 277 277 276
296 295 296 296 296 295 295 295 295 295 295 295 294 294 294 294 294 294 293 293 293 293 292 292 292 291 291 290 290 290 291 291 290 290 289 289 289 288 287 287 286 287 287 287 287 286 286 286 286 286 286 286 286 286 285 284 283 282 281 281 281 280 280 279 278 278 278 278 278 278 277 277 277 277 278 278 278 278 278 278 277 276 276 275 274
295 295 296 296 296 296 296 295 295 295 295 294 294 294 294 294 294 294 294 293 293 293 292 292 292 292 291 291 290 290 291 291 290 289 289 289 288 288 287 287 286 286 286 287 287 287 287 286 286 286 286 286 286 285 284 283 282 281 280 280 279 279 279 278 278 278 277 277 277 277 277 277 278 278 278 278 278 278 277 276 276 275 274 273 273
296 296 296 296 296 296 296 295 295 295 295 294 294 294 294 295 295 294 293 293 293 293 293 293 292 292 291 291 290 290 291 291 290 289 289 289 288 287 287 287 286 286 287 287 287 286 286 286 286 286 286 286 286 285 283 282 280 280 279 279 279 278 278 278 277 277 277 277 277 277 277 278 278 278 278 278 277 277 276 275 274 273 272 272 271
296 296 296 297 297 296 296 296 295 295 295 294 294 295 294 295 295 294 293 293 293 293 293 292 292 291 291 291 290 290 291 291 290 289 289 288 288 288 287 287 286 286 286 286 286 286 286 286 286 286 286 286 285 283 282 280 279 279 279 278 278 278 278 277 277 277 277 277 277 277 277 278 277 277 277 276 275 275 274 273 272 271 271 270 270
296 297 297 297 297 297 296 296 295 295 295 295 295 294 294 294 294 294 293 293 293 293 292 292 292 291 291 291 290 290 290 290 290 289 289 288 288 287 287 286 286 286 286 286 286 286 286 286 286 286 285 284 283 282 280 280 279 279 279 278 278 278 277 277 277 277 277 277 277 277 277 276 276 276 275 275 274 273 272 271 271 270 270 270 270
297 297 297 297 296 296 296 296 295 295 295 295 295 294 294 294 293 293 293 292 292 292 291 291 291 291 291 290 290 290 290 290 289 289 288 288 288 287 287 286 286 286 286 286 286 286 285 285 285 285 284 283 281 280 280 279 279 279 278 278 278 278 277 277 277 278 277 277 276 276 275 275 274 274 273 272 271 271 270 270 269 269 269 269 269
297 297 297 296 296 296 296 296 295 295 295 295 294 294 294 294 293 293 292 292 291 291 291 291 291 291 291 290 290 290 289 289 289 289 288 288 287 287 287 287 287 287 286 286 286 285 285 285 284 284 282 281 280 280 279 279 278 278 278 278 278 278 278 278 278 277 277 276 275 274 273 273 272 271 271 270 270 269 269 269 269 269 269 269 269
297 296 296 296 296 296 296 296 295 295 295 294 294 294 294 294 293 292 292 291 291 290 290 290 290 290 290 290 290 290 290 289 289 288 288 287 287 287 286 286 287 286 286 285 285 285 285 285 284 282 281 280 279 279 278 278 278 278 278 278 278 278 278 277 277 276 275 274 274 273 272 271 270 270 269 269 269 268 268 268 268 268 268 268 268
296 296 295 295 295 296 296 296 295 295 295 294 294 293 293 293 293 292 291 291 290 290 290 290 289 289 289 290 290 290 289 289 288 288 288 287 287 287 286 286 286 286 285 285 285 285 284 284 282 281 280 279 279 278 277 277 277 278 278 277 277 277 276 276 275 274 274 273 272 271 270 269 269 268 268 268 268 268 267 267 267 267 267 266 266
296 295 295 295 295 295 295 295 295 295 294 294 293 293 293 292 292 291 291 290 289 289 289 289 288 287 288 289 290 290 289 289 288 288 287 287 286 286 286 286 286 285 285 285 284 284 283 282 281 280 279 278 278 277 277 277 277 277 277 276 276 275 275 274 273 272 271 270 269 269 268 268 268 268 267 267 267 267 266 266 266 265 265 265 265
295 295 294 294 295 295 295 295 295 294 294 293 293 292 292 292 291 291 290 289 288 288 288 288 287 287 287 288 289 289 289 288 287 287 286 286 285 285 285 285 285 285 284 283 283 282 281 280 279 279 278 277 277 276 276 276 275 275 275 275 274 274 273 273 272 270 269 269 268 268 267 267 267 267 266 266 266 265 265 265 265 264 264 264 264
294 294 294 294 294 295 294 294 294 294 293 293 292 292 292 291 290 290 289 288 288 287 287 287 287 286 286 287 288 288 287 287 286 286 285 285 285 285 285 284 284 283 283 282 281 280 280 279 278 277 276 276 275 275 275 274 274 274 274 273 273 273 272 271 270 269 268 268 267 267 267 266 266 265 265 265 264 264 264 264 263 263 263 263 263
294 294 294 294 294 294 294 294 294 293 293 292 292 292 291 290 290 289 288 288 287 287 287 287 286 286 286 286 287 287 286 286 285 285 284 284 284 284 283 283 282 282 281 281 280 279 278 278 277 276 275 275 275 274 274 274 274 273 273 272 272 271 270 269 269 268 267 267 266 266 265 265 264 264 264 264 264 264 263 263 262 262 262 262 262
294 294 294 294 293 293 293 293 293 292 292 292 291 291 291 291 290 290 290 289 288 287 287 287 287 286 286 286 286 285 284 285 285 284 284 284 283 283 282 282 281 281 280 280 279 278 277 276 275 275 274 274 274 274 274 273 273 272 271 271 270 269 269 268 268 267 266 265 265 264 264 264 263 263 263 263 263 263 262 262 262 262 262 261 261
293 293 294 293 293 293 293 292 292 292 291 292 291 291 291 290 290 290 290 290 289 288 287 287 287 287 287 286 286 284 284 285 286 285 284 283 283 282 282 281 281 280 278 278 277 276 276 275 275 275 274 274 274 273 273 272 271 271 270 269 269 269 268 267 266 266 265 264 264 263 263 263 263 262 262 262 262 262 261 261 261 261 261 261 261
293 293 293 292 292 293 292 292 292 291 291 291 290 290 291 290 289 289 289 289 288 287 287 286 287 286 286 285 285 285 284 285 285 284 283 282 282 281 281 280 279 278 277 277 276 276 276 275 275 275 274 273 273 272 272 271 271 270 270 269 269 268 267 266 266 265 264 263 263 263 262 262 262 262 261 261 261 261 261 261 261 261 260 260 260
292 292 292 292 292 293 292 292 292 291 291 290 289 289 289 289 289 288 288 288 288 287 286 286 286 285 285 285 285 284 284 284 284 283 283 282 281 280 279 278 277 277 277 277 277 276 276 275 274 274 273 272 272 271 271 271 270 269 269 268 268 267 266 266 265 264 263 262 262 262 262 261 261 261 261 260 260 260 260 260 260 260 260 260 259
291 292 292 293 293 293 292 292 291 291 290 290 289 288 288 287 287 287 287 287 286 286 286 285 285 285 284 284 284 283 283 283 283 282 282 281 279 278 278 277 277 277 277 277 276 276 275 274 274 273 272 272 271 271 270 269 269 268 267 267 266 266 266 265 264 263 262 262 261 261 261 261 260 260 260 260 260 260 260 260 259 259 259 259 259
292 292 293 293 293 293 292 292 291 290 290 289 289 288 287 286 286 286 286 286 285 285 285 285 284 283 283 283 283 282 282 282 281 281 280 279 278 277 277 277 277 277 277 276 276 275 274 274 273 272 272 271 271 270 269 268 268 267 266 265 265 265 265 264 264 263 262 261 261 261 260 260 260 260 260 259 259 259 259 259 259 259 259 259 259
292 292 293 293 292 292 292 291 291 290 290 289 289 288 287 287 286 286 285 284 283 283 283 283 282 282 282 282 281 281 280 280 280 279 278 277 277 277 277 276 276 276 275 275 275 274 274 273 272 272 271 270 269 269 268 267 266 266 265 264 264 264 264 263 263 262 261 261 260 260 260 260 259 259 259 259 259 259 259 259 258 258 258 258 258
293 293 293 293 292 292 292 291 291 290 290 289 289 288 288 287 287 286 285 284 283 282 281 281 280 280 280 280 280 279 279 279 278 278 277 277 276 276 275 275 275 274 274 274 273 273 273 272 271 270 270 269 268 267 267 266 265 265 264 264 264 264 263 263 262 261 261 260 260 260 259 259 259 259 259 258 258 258 258 258 258 258 258 258 258
292 292 292 292 292 291 291 291 291 291 290 289 289 288 288 287 286 285 285 284 283 282 281 280 279 279 278 278 278 278 278 278 277 277 276 276 276 275 275 274 274 273 273 273 272 272 271 270 270 269 268 268 267 266 266 265 265 264 264 264 263 263 263 262 261 260 260 259 259 259 259 258 258 258 258 258 258 258 258 257 258 257 257 257 257
292 292 292 292 292 291 291 291 291 291 290 289 288 288 287 286 286 285 284 283 282 281 280 279 278 278 277 277 277 277 277 276 276 275 275 275 275 274 274 274 273 273 272 272 271 270 270 269 268 268 267 267 266 266 265 265 264 264 264 263 263 263 262 262 261 260 259 259 259 258 258 258 258 258 258 257 257 257 257 257 257 257 257 257 257
292 292 292 292 291 291 291 291 291 291 290 289 288 288 286 286 285 284 283 282 281 280 279 278 277 277 277 277 276 276 276 275 274 274 274 274 273 273 273 272 272 272 271 270 269 269 268 268 267 267 266 266 265 265 264 264 264 264 263 263 262 262 262 261 261 260 259 258 258 258 258 258 257 257 257 257 257 257 257 257 257 257 256 256 256
292 292 292 291 291 291 291 291 291 290 289 288 288 287 285 284 283 282 281 281 280 279 278 277 276 276 276 276 275 275 274 274 273 273 273 272 272 272 272 271 271 270 269 269 268 268 267 267 267 266 266 265 265 264 264 264 263 263 263 262 262 261 261 261 260 260 259 258 258 258 257 257 257 257 257 257 257 256 256 256 256 256 256 256 256
292 292 292 292 292 292 291 291 290 289 288 287 286 285 284 283 282 281 281 280 279 278 277 276 276 275 275 275 275 274 274 273 272 272 272 272 271 271 271 270 270 269 268 268 267 267 267 266 266 266 265 265 264 264 263 263 263 263 262 262 261 261 261 260 260 259 259 258 258 257 257 257 257 257 256 256 256 256 256 256 256 256 256 256 256
291 291 291 292 292 292 291 290 289 288 287 286 285 284 283 282 282 281 280 279 278 278 277 276 276 275 275 275 275 274 274 273 272 272 272 271 271 270 269 269 268 268 267 267 266 266 266 266 265 265 265 265 264 263 263 263 263 262 262 261 261 260 260 260 260 259 259 258 258 257 257 257 257 256 256 256 256 256 256 256 255 255 255 255 255
291 291 291 291 292 291 290 289 288 287 285 284 283 283 282 282 281 280 279 278 278 277 276 275 274 274 274 274 273 273 273 272 272 272 271 270 270 269 268 268 267 267 266 266 266 265 265 265 265 265 265 264 264 263 263 263 262 262 261 261 260 260 260 260 260 259 259 258 258 257 257 256 256 256 256 256 255 255 255 255 255 255 255 255 255
290 290 290 290 290 289 288 287 286 285 284 283 283 282 282 281 280 279 278 277 277 276 275 274 273 273 272 272 272 271 271 271 271 270 270 269 269 268 267 267 266 265 265 265 265 265 264 264 264 264 264 263 263 263 262 262 262 261 261 261 260 260 260 260 260 259 259 258 257 257 256 256 256 255 255 255 255 255 255 255 255 255 255 255 255
289 289 288 288 288 287 287 286 284 283 283 282 282 281 280 279 278 277 276 276 275 275 274 274 273 272 271 270 270 270 270 270 270 269 269 268 268 267 266 266 265 265 264 264 264 264 264 264 264 264 263 263 262 262 262 262 261 261 261 260 260 260 260 260 260 259 258 257 256 256 256 255 255 255 255 255 254 254 254 254 255 255 255 255 256
288 287 287 286 286 286 285 284 283 282 281 280 279 279 278 277 276 276 275 275 274 274 273 273 272 271 271 270 270 270 270 270 269 269 268 267 267 266 265 265 264 264 264 264 264 263 263 263 263 263 263 262 262 262 262 262 261 261 261 261 260 260 260 260 259 258 257 256 256 256 255 255 254 254 254 254 254 254 254 255 255 255 255 256 256
287 286 285 285 284 284 283 282 281 280 279 278 278 277 276 275 275 274 274 273 273 272 272 272 271 271 271 270 270 270 269 268 268 267 267 266 266 265 265 264 264 264 264 264 263 263 263 263 262 262 262 262 262 262 262 262 261 261 261 261 261 261 261 260 259 257 256 255 255 255 255 255 254 254 254 254 254 255 255 255 255 255 256 256 256
286 285 284 283 283 282 281 280 279 278 277 277 276 275 275 274 273 272 272 272 271 271 271 271 270 270 270 269 269 268 268 267 266 266 266 265 265 264 264 264 264 264 264 263 263 263 263 262 262 261 261 261 261 261 261 261 261 261 261 261 261 261 261 260 259 257 256 255 255 254 254 254 254 254 254 255 255 255 255 255 256 256 256 256 257
284 283 282 282 281 280 279 278 277 277 276 275 274 274 273 272 271 271 271 271 271 271 271 270 270 269 269 268 267 267 266 266 265 265 265 264 264 264 264 264 264 264 263 263 263 263 262 262 262 261 261 261 261 261 261 261 261 261 261 261 261 261 260 260 259 257 256 255 254 254 255 255 255 255 255 255 255 256 256 256 256 256 256 257 257
283 282 281 280 279 278 277 277 276 275 274 274 273 272 271 271 270 270 270 270 271 270 270 269 269 268 267 267 266 266 265 265 265 264 264 264 264 264 264 263 263 263 263 263 263 262 262 262 261 261 260 260 260 260 261 261 261 261 261 261 260 260 260 260 258 256 255 255 255 255 255 255 255 255 255 255 256 256 256 256 256 256 257 257 257
281 280 279 278 277 276 276 275 274 273 273 272 271 270 270 270 270 270 270 270 270 269 268 268 268 267 266 266 265 265 265 264 264 264 264 263 263 263 263 263 263 263 263 262 262 262 262 261 261 261 260 260 260 260 260 260 260 260 260 260 260 260 260 259 257 256 255 255 255 255 255 255 255 255 255 255 255 255 256 256 256 257 257 257 258
278 277 276 276 275 275 274 273 273 272 271 271 271 270 270 270 270 269 269 269 269 268 267 267 266 266 265 265 264 264 264 264 263 263 263 263 263 263 263 262 262 262 262 262 262 261 261 261 260 260 260 260 260 260 260 260 260 260 260 260 260 259 258 256 255 255 255 255 255 255 255 255 255 255 255 255 256 256 256 257 257 257 258 258 259
Wind_Speed
11 14 15 16 16 16 15 14 13 13 12 13 13 12 10 10 9 8 9 9 8 8 8 7 7 7 8 8 8 8 7 6 6 6 6 6 6 6 6 6 7 7 7 7 7 7 7 7 7 7 7 8 8 7 7 7 7 8 8 8 9 8 9 10 11 13 17 19 20 22 22 23 24 25 26 26 25 25 24 24 24 25 25 26 26
8 10 13 15 17 17 17 17 16 16 16 16 16 15 14 13 12 12 12 12 11 11 11 11 10 11 11 11 11 11 11 10 10 10 9 9 9 9 9 9 9 9 10 10 10 10 10 11 11 10 10 11 12 11 10 10 10 11 11 11 11 11 10 12 13 13 16 19 21 22 22 22 24 26 26 26 26 25 25 25 25 25 26 26 25
8 9 11 13 15 16 17 18 18 19 19 19 19 18 17 16 15 16 16 15 15 15 14 14 14 14 14 14 14 15 14 14 13 13 13 12 12 12 12 13 13 13 14 14 13 13 14 15 15 13 13 14 16 15 14 14 14 14 14 14 14 13 13 13 15 14 16 18 19 20 22 22 24 26 26 25 25 24 25 25 25 25 26 25 25
9 10 11 12 13 15 17 18 19 21 22 22 22 21 20 19 19 20 19 19 18 18 18 18 17 17 18 18 18 18 18 18 17 17 17 16 16 16 15 16 17 17 17 17 17 17 17 19 19 17 17 18 20 20 19 19 18 17 17 17 16 16 15 15 16 17 17 18 19 20 22 22 24 26 26 25 24 24 25 25 25 26 26 25 25
10 11 11 12 13 14 15 17 19 21 22 23 23 23 22 22 22 23 23 23 22 21 21 21 21 21 22 21 21 21 21 21 21 21 20 20 20 19 19 19 20 20 21 21 21 21 21 22 22 21 21 22 23 24 23 23 22 20 20 20 18 17 17 17 18 18 19 20 21 22 22 21 23 25 25 24 24 25 25 25 25 25 25 25 25
11 12 12 13 14 14 15 16 17 19 20 21 22 23 23 24 25 25 25 26 26 25 25 25 25 25 25 24 24 24 24 24 24 24 23 23 23 23 23 23 23 23 23 24 24 24 24 25 25 24 25 26 26 26 26 26 25 24 23 22 20 19 18 18 19 19 21 22 23 22 21 20 22 24 23 23 24 25 26 27 25 24 25 26 27
14 13 14 14 14 15 16 16 16 17 17 19 20 21 22 24 25 26 26 27 28 28 28 28 28 28 28 28 27 27 27 27 27 27 26 26 26 26 26 26 26 26 26 27 27 27 27 27 27 28 28 29 29 29 29 28 28 27 26 24 22 20 19 19 19 20 21 22 22 21 21 19 20 22 23 22 22 23 24 25 25 25 27 27 28
15 15 16 16 16 16 16 16 16 16 16 17 18 19 21 22 24 24 25 27 28 29 29 29 30 30 31 31 31 30 30 31 31 30 29 29 29 29 29 29 29 29 29 29 29 30 30 30 30 30 31 31 31 31 31 30 29 28 27 25 22 20 19 19 19 20 21 21 21 20 20 19 20 21 21 21 21 20 20 22 25 26 27 27 28
17 17 17 18 18 18 17 16 17 17 17 18 18 18 19 21 22 23 24 26 27 27 28 29 30 31 31 32 32 32 33 34 34 33 33 32 32 32 31 31 31 32 32 32 32 32 33 33 33 33 33 33 33 33 32 31 29 29 27 25 22 20 19 18 18 19 20 19 19 19 18 18 20 20 20 19 19 20 22 23 25 25 27 28 27
18 18 19 19 19 19 19 18 18 18 18 19 18 19 19 20 21 22 23 24 25 26 27 28 30 31 31 32 32 33 34 35 35 34 34 34 34 34 33 34 34 34 34 35 35 36 36 35 35 35 34 34 33 32 31 30 29 28 26 24 22 20 18 18 18 18 19 17 17 16 16 17 19 19 19 20 20 22 23 22 23 25 26 26 23
19 20 21 21 20 20 20 20 20 19 20 19 19 19 20 20 21 22 22 23 24 25 26 28 29 30 31 32 32 33 34 34 34 34 34 34 34 34 34 34 34 35 35 36 36 37 36 36 35 34 34 33 32 31 30 28 27 25 24 22 20 19 17 17 17 18 18 17 16 16 16 18 19 19 20 22 21 21 22 22 24 26 23 19 19
20 21 22 22 22 21 21 21 21 21 21 21 21 20 21 21 22 22 22 23 23 24 26 27 28 29 30 31 32 33 34 34 33 33 33 33 33 33 33 33 34 35 35 36 36 36 36 35 34 33 33 32 30 29 28 26 25 22 21 20 19 18 16 16 17 17 16 16 16 16 18 19 20 20 20 21 21 22 23 24 25 24 21 18 18
22 22 23 23 24 23 23 23 23 23 23 22 22 22 22 23 23 23 23 23 23 25 26 27 28 28 29 30 31 32 33 32 32 32 32 32 31 31 32 32 33 34 34 35 35 34 34 33 33 32 31 30 29 28 26 24 22 20 19 19 19 18 18 19 18 17 15 15 17 19 19 19 20 21 20 21 22 24 25 24 22 19 17 16 17
25 24 24 24 25 25 25 25 25 25 24 23 24 24 25 25 24 24 24 24 25 26 26 27 28 28 29 30 30 31 32 31 30 30 30 30 30 30 30 31 32 32 33 33 33 33 32 31 31 31 29 28 27 26 24 22 19 18 18 19 19 19 20 20 20 18 17 17 18 20 20 19 20 22 21 21 23 26 25 21 17 15 18 22 25
26 27 26 26 26 26 26 27 27 26 25 25 25 26 26 26 26 25 25 25 26 27 27 27 28 28 28 28 29 31 31 30 29 29 29 28 27 27 28 29 30 31 31 31 31 31 30 29 29 29 28 27 26 24 22 19 16 17 17 18 19 19 20 20 20 19 18 18 18 20 20 20 20 21 21 21 22 22 20 19 20 24 28 31 30
28 28 28 28 27 27 27 28 28 28 27 26 27 27 27 27 26 26 26 26 27 27 28 28 28 28 28 28 29 30 30 29 28 27 27 25 25 25 26 27 28 29 29 29 28 27 27 27 27 27 26 25 24 21 18 16 15 16 16 17 17 18 19 20 18 18 18 17 17 18 19 19 19 20 20 20 19 19 20 23 26 28 29 27 26
29 29 29 29 28 28 28 28 29 28 28 28 29 28 27 27 26 26 26 27 28 28 28 28 27 27 27 27 28 29 29 28 26 25 24 22 22 23 24 25 26 27 27 26 25 25 25 25 25 25 24 23 20 17 15 14 14 14 15 15 16 18 19 19 18 18 18 17 17 17 18 18 18 17 16 16 17 18 22 24 23 23 23 20 19
29 29 30 29 28 28 28 28 29 29 29 30 30 29 28 27 27 26 26 28 28 28 27 27 27 26 26 26 26 27 28 27 24 23 22 20 20 21 22 23 24 26 26 24 24 24 23 23 23 22 21 18 16 15 14 14 13 13 14 14 15 18 19 18 17 18 19 19 18 16 15 15 14 14 16 19 19 19 21 22 22 22 22 19 18
30 30 30 29 28 28 28 28 29 29 30 30 30 29 29 28 27 27 27 27 27 27 26 26 27 27 26 26 25 25 27 25 23 22 20 19 19 20 21 22 24 25 24 24 23 23 22 21 20 18 16 14 14 14 13 13 12 12 13 13 15 17 18 17 18 19 19 17 14 12 11 12 15 18 22 25 25 23 23 24 23 21 21 21 22
30 30 30 29 29 28 28 29 30 30 30 30 30 29 28 28 27 27 27 27 27 27 27 27 28 28 26 25 25 25 25 25 23 21 20 19 19 19 20 22 24 24 24 23 23 21 20 18 16 15 14 14 14 13 13 12 11 11 12 13 15 16 17 17 17 16 14 12 10 11 14 17 20 24 26 27 27 26 25 23 22 21 20 23 24
30 30 30 30 29 29 29 30 30 30 30 29 29 30 29 28 28 28 27 27 27 27 28 27 28 28 27 26 25 25 25 24 23 21 20 20 19 19 21 23 23 23 23 22 21 20 18 17 15 15 15 14 13 13 13 12 11 11 12 14 15 15 16 16 15 13 13 14 16 18 20 23 26 27 27 27 26 25 24 22 21 20 19 21 23
30 31 31 30 30 30 30 30 30 30 29 29 29 30 29 28 28 28 27 27 27 28 28 28 28 29 28 27 26 26 25 24 23 21 20 20 20 20 22 22 21 21 22 21 20 18 17 16 15 15 15 14 14 13 12 12 11 10 11 12 13 14 15 16 15 15 16 19 21 23 25 26 27 26 25 25 24 22 22 22 20 20 21 22 24
30 30 31 30 30 30 30 30 30 29 29 29 29 30 29 28 28 28 27 27 27 28 29 28 28 28 29 28 28 26 25 24 23 22 21 21 21 21 21 20 19 19 20 19 18 16 15 15 15 15 14 14 13 12 11 10 9 9 10 11 12 13 14 16 16 18 20 22 23 23 24 23 23 23 22 22 22 21 22 23 23 25 27 29 29
29 29 30 30 30 30 30 30 30 29 29 28 29 29 29 28 28 28 27 27 27 28 29 28 26 27 29 29 29 27 25 23 22 21 21 20 20 19 19 18 18 17 17 16 15 14 15 15 15 14 13 12 11 10 10 10 9 9 10 10 11 13 15 17 19 21 22 22 21 21 21 21 21 21 21 21 22 24 26 27 28 29 30 31 32
28 29 29 29 29 29 29 29 29 29 28 28 28 29 29 28 28 28 27 27 27 28 28 27 26 27 28 29 29 28 24 22 21 20 19 18 18 17 17 17 17 17 17 16 15 15 15 14 13 12 12 11 11 11 12 13 13 12 10 10 12 16 18 21 22 21 20 20 18 19 21 21 21 22 23 24 25 27 29 29 29 29 29 31 33
29 29 29 29 28 28 29 30 30 29 29 28 28 28 28 28 28 28 27 26 27 27 28 27 27 26 27 28 29 27 23 21 19 19 18 17 17 17 17 18 18 18 17 16 15 14 14 13 13 12 12 12 13 14 15 15 14 13 12 14 18 21 22 21 19 19 19 19 20 21 22 23 24 25 26 26 27 28 28 28 29 30 29 30 33
30 29 30 30 28 27 28 29 29 29 28 28 27 28 28 27 28 28 28 27 26 27 27 27 26 26 27 28 27 25 22 20 19 19 19 19 19 20 19 19 19 18 17 17 15 15 14 13 12 12 12 12 13 13 13 13 14 15 18 20 22 21 19 18 18 19 21 22 22 23 24 24 25 26 26 26 27 28 26 25 27 30 29 28 30
30 30 31 29 28 27 27 28 28 28 28 28 27 27 28 27 27 29 29 28 28 28 28 27 28 28 28 27 25 22 21 21 21 21 22 22 23 23 22 21 21 19 18 17 15 14 13 12 12 13 13 12 13 13 14 15 17 18 19 19 18 17 18 19 21 22 22 22 22 23 24 24 25 26 26 26 27 27 26 25 25 28 28 26 25
29 30 30 29 28 27 26 26 27 27 27 28 28 28 28 27 27 29 29 28 28 28 28 28 28 28 27 26 24 22 22 23 22 22 23 24 25 25 24 23 21 19 18 16 14 12 12 12 12 12 12 12 13 14 16 17 17 16 16 16 17 20 21 22 23 22 21 21 21 22 24 25 26 26 26 27 28 27 25 24 24 25 26 24 25
29 29 29 28 27 25 24 25 25 25 26 26 27 27 27 25 25 26 27 26 26 26 26 27 27 27 26 26 25 24 24 23 20 18 21 24 25 25 24 22 21 18 15 13 12 12 12 12 12 12 12 13 14 15 16 15 15 16 17 19 21 23 23 23 22 21 20 20 21 22 24 25 27 27 26 27 29 28 25 24 23 24 25 24 26
28 28 29 27 26 24 23 24 24 23 24 24 24 24 25 24 23 24 24 25 25 25 25 25 25 25 26 25 24 23 22 21 18 17 19 23 25 25 22 20 19 16 13 12 12 13 13 13 13 14 13 13 14 14 14 15 17 19 21 23 23 23 23 23 21 20 21 21 21 22 24 24 26 27 26 27 29 29 27 25 24 24 24 24 25
28 28 29 27 25 23 22 23 22 22 22 22 22 22 22 22 22 22 22 22 23 23 23 23 24 24 24 23 22 21 20 20 18 17 18 22 25 24 20 18 16 13 12 13 14 15 15 14 14 13 12 13 14 15 17 19 20 21 22 23 23 22 22 22 21 21 22 22 22 23 24 24 25 26 27 27 28 29 28 27 25 25 25 26 26
28 29 29 27 25 23 23 22 22 21 21 21 21 21 21 20 20 20 20 20 20 21 21 21 21 21 21 20 20 19 18 17 16 16 18 21 23 21 18 15 14 14 14 15 15 15 15 15 14 14 14 15 16 18 19 20 21 21 21 21 22 22 21 21 22 22 22 22 23 23 24 24 25 26 27 27 26 27 28 28 27 26 25 25 26
29 30 29 28 26 24 22 22 21 20 20 20 21 20 21 21 21 21 19 19 19 19 18 17 17 17 17 17 17 16 15 15 16 17 19 21 21 19 17 15 13 14 15 16 16 16 15 15 16 15 16 17 18 18 19 20 20 19 19 19 20 21 22 22 22 23 23 23 23 24 25 25 25 25 27 27 26 26 27 27 27 27 25 25 27
29 30 29 28 27 25 24 22 21 20 20 21 21 21 21 21 22 22 21 21 21 19 17 15 14 14 14 14 14 15 15 15 16 18 19 19 18 17 16 15 14 14 14 14 15 15 15 16 16 16 16 17 17 17 18 18 18 18 18 19 20 21 22 23 23 23 23 23 24 25 25 25 25 25 26 27 26 26 27 27 27 27 27 27 27
30 30 29 28 27 25 23 21 20 20 21 21 21 21 21 21 22 23 23 23 22 20 18 16 15 14 14 13 13 14 15 16 16 17 17 17 16 16 17 17 16 15 14 14 14 15 15 16 16 16 16 16 16 16 17 17 17 18 18 19 20 22 23 24 24 24 24 24 25 25 25 25 26 25 25 26 27 27 28 29 28 28 28 28 28
29 29 29 27 25 22 20 19 19 20 20 20 20 21 21 22 23 23 23 22 22 20 19 19 18 17 16 16 16 16 16 16 15 15 15 15 15 16 16 15 14 14 14 14 14 15 15 15 15 15 15 16 16 16 16 17 17 17 18 19 20 22 23 24 24 24 24 25 25 26 26 25 26 25 25 26 27 27 28 28 28 29 30 28 28
28 29 28 25 22 20 19 19 19 19 19 20 21 21 22 22 22 22 22 22 21 20 20 21 22 21 21 21 20 19 18 17 16 15 15 16 16 16 14 13 13 13 13 13 14 14 14 14 14 14 15 15 15 15 16 16 16 17 18 19 21 22 23 24 24 24 25 26 26 26 26 26 26 25 24 25 27 28 29 28 27 29 30 29 28
28 28 26 23 21 20 20 20 20 20 21 21 22 22 22 22 21 21 21 20 20 20 20 21 23 23 23 23 23 22 20 19 18 18 17 16 15 14 13 13 13 13 13 13 13 13 14 14 14 14 14 15 15 15 16 16 17 18 19 20 22 23 23 24 25 25 25 26 27 26 26 26 26 25 24 25 27 28 29 29 28 28 29 30 30
28 27 25 22 21 21 21 21 22 23 23 22 22 21 21 20 20 20 20 19 19 19 20 21 22 23 23 24 24 23 22 20 20 19 18 16 15 13 13 13 12 12 12 12 12 13 13 13 14 14 14 15 15 15 15 16 17 19 20 21 22 23 23 23 24 25 26 26 27 27 26 26 26 25 24 26 27 27 28 28 29 28 28 30 33
27 27 25 22 21 21 22 23 24 24 22 21 20 19 19 20 19 19 18 18 19 19 19 20 20 20 21 23 24 23 22 20 19 17 15 14 13 13 12 12 11 11 12 12 12 12 13 13 14 14 15 15 16 16 16 17 18 19 20 21 22 23 24 24 24 25 26 26 27 27 27 26 25 25 25 26 27 27 27 28 29 30 30 32 34
26 27 26 24 23 22 22 23 23 21 19 18 18 18 18 18 18 18 18 18 18 17 17 17 17 17 18 19 20 21 19 17 14 13 12 12 11 11 10 10 10 10 11 11 11 12 13 14 14 15 16 16 16 16 17 18 19 20 21 21 22 23 24 24 24 25 26 27 28 28 28 27 26 25 26 27 27 27 27 28 29 30 32 33 33
26 26 26 24 23 22 21 21 20 18 17 17 17 17 18 18 17 18 17 16 16 16 15 15 15 16 16 16 17 18 17 14 11 10 10 10 10 9 9 9 9 10 10 10 11 12 13 14 15 15 16 16 16 16 17 18 19 20 21 22 22 24 25 25 26 26 26 27 29 29 29 28 27 26 27 27 27 27 28 28 30 31 32 33 34
24 24 24 23 21 20 19 19 17 17 16 16 16 16 16 16 15 15 14 14 14 14 14 14 15 15 15 15 15 15 13 11 10 9 9 8 8 8 8 8 9 10 10 10 11 12 13 15 16 16 16 16 16 16 17 18 18 19 21 22 23 25 26 26 27 27 27 28 29 30 30 29 28 27 27 27 27 28 29 29 30 31 31 32 33
22 22 22 21 20 19 18 17 16 16 15 14 14 14 13 13 13 13 13 13 13 12 12 13 14 15 15 14 13 12 10 9 9 8 8 8 8 8 8 9 10 10 11 11 12 13 14 15 16 17 17 17 16 17 18 18 19 20 21 22 24 26 27 27 28 27 27 28 29 30 31 30 28 28 28 28 27 28 30 30 31 31 32 33 33
20 20 20 19 18 17 16 15 14 14 13 13 13 12 11 11 11 11 11 11 11 10 11 12 13 13 12 10 9 9 8 8 8 8 8 8 8 8 9 10 10 11 12 13 13 14 15 15 16 17 18 18 18 18 19 19 20 21 21 23 25 27 27 28 28 28 27 27 27 28 29 30 30 29 28 28 28 29 30 32 32 32 33 34 34
17 17 17 16 15 14 13 13 12 12 12 12 11 11 10 10 10 10 10 10 10 10 11 11 11 10 9 8 8 8 8 7 8 8 8 8 8 9 10 11 11 12 13 14 14 14 15 16 16 17 18 19 19 20 20 21 21 22 23 23 25 26 27 27 27 27 26 25 25 26 27 29 31 31 30 29 30 29 30 32 33 33 35 35 36
14 14 14 14 13 12 12 11 11 11 11 11 10 10 10 10 10 11 11 11 11 11 11 10 10 9 9 8 8 8 7 7 7 7 8 8 8 9 10 11 12 13 14 14 14 15 16 16 17 18 18 19 20 21 22 23 23 24 24 24 25 25 26 27 26 26 24 23 24 26 27 29 32 32 31 30 29 29 31 34 35 36 37 37 36
13 13 13 13 12 11 11 11 10 10 10 10 10 10 11 11 12 12 12 12 11 10 10 9 9 9 8 8 7 7 7 7 7 7 8 8 8 9 10 11 12 13 14 15 15 16 16 17 17 18 19 20 21 22 23 24 24 24 25 25 25 25 25 24 23 23 23 23 24 26 27 28 30 31 31 31 31 32 34 36 37 38 38 37 36
12 11 11 10 10 9 9 8 8 8 8 9 10 12 12 13 13 13 12 11 10 10 9 8 7 7 6 6 6 6 6 6 7 7 8 8 9 10 11 12 13 14 15 15 16 16 17 17 18 19 20 20 21 22 23 24 24 24 25 25 24 24 23 23 22 22 23 23 24 26 27 28 31 33 33 33 33 33 34 36 37 38 38 37 36
9 8 8 8 7 6 6 6 6 6 7 9 11 12 13 13 12 11 10 9 9 8 7 6 6 5 5 5 5 5 6 6 7 7 8 9 10 11 12 13 14 14 15 16 17 17 18 18 18 19 19 20 21 22 22 23 24 24 24 24 23 23 22 22 23 23 22 22 24 26 27 29 31 33 34 33 33 33 34 36 36 37 37 37 36
Wind_Direction
286 280 280 280 281 283 285 286 287 286 285 284 284 285 282 278 277 274 269 269 270 269 269 267 265 264 262 261 260 255 250 245 239 234 231 225 217 213 213 213 215 215 217 220 221 224 231 235 237 240 248 256 258 259 262 265 271 275 277 280 281 278 268 250 240 260 285 297 302 309 317 319 320 325 326 325 328 329 328 327 328 328 329 329 329
297 284 279 276 276 279 281 282 281 279 278 278 278 280 280 278 276 270 268 269 267 267 267 264 262 262 261 261 261 258 257 254 249 246 244 242 240 238 238 238 238 239 241 244 244 246 252 255 256 255 258 267 270 270 273 273 273 278 280 280 283 286 279 269 261 262 278 292 300 305 313 315 316 322 324 323 325 327 324 324 325 325 326 326 325
310 291 281 275 275 276 275 275 275 274 274 273 274 276 277 277 273 269 270 269 265 265 266 264 262 261 261 261 260 259 259 258 255 253 252 252 251 250 250 250 251 251 252 253 254 256 261 265 269 270 271 275 279 279 279 278 276 278 282 282 281 286 287 280 274 270 276 289 297 302 309 312 313 318 322 321 322 323 321 321 323 322 323 323 322
313 302 291 284 280 276 273 272 271 271 271 271 272 273 273 274 272 270 270 268 266 266 266 264 262 260 260 261 261 261 261 260 258 256 256 257 257 257 256 256 257 258 259 261 261 262 265 268 271 275 277 277 280 282 280 279 279 278 280 282 281 285 289 286 283 281 281 286 293 300 305 308 311 316 320 320 321 320 318 318 319 319 320 320 319
305 302 298 293 286 279 275 273 270 270 270 270 271 272 272 271 270 270 270 269 268 267 266 265 263 261 261 262 263 263 264 263 261 260 259 259 260 261 261 260 261 263 264 265 265 266 267 269 270 274 276 275 277 280 281 281 281 279 280 281 282 284 288 287 288 289 287 287 293 301 306 308 310 315 319 320 319 318 316 316 317 318 318 317 317
291 293 293 292 291 286 280 275 272 272 273 273 274 273 272 271 270 270 269 269 269 268 266 265 263 263 264 264 264 265 265 265 263 263 262 262 262 263 264 265 265 266 268 268 269 269 269 270 272 273 274 275 277 280 282 283 282 280 280 281 282 283 285 287 291 293 292 292 296 301 305 308 310 312 317 319 316 315 315 315 316 317 317 317 317
283 285 285 285 287 288 287 283 279 276 275 275 276 274 273 272 270 269 269 269 269 268 267 266 265 265 266 265 265 266 266 266 265 264 264 264 263 264 265 266 267 268 269 270 271 272 272 272 274 275 275 276 278 281 283 283 282 281 282 282 280 279 281 286 291 292 293 295 298 301 304 308 308 308 312 316 312 311 313 314 314 315 316 316 317
278 279 279 279 281 284 288 288 286 283 279 276 274 271 270 270 269 269 269 268 268 268 268 268 267 267 267 267 267 267 267 266 265 265 265 265 264 265 265 266 267 269 270 271 272 273 273 275 275 276 278 278 280 282 282 283 282 281 282 280 276 275 279 285 289 291 293 295 296 300 303 305 305 305 309 312 309 308 311 311 308 310 313 314 314
276 276 275 275 279 282 284 284 284 284 281 277 275 272 270 269 268 268 268 267 267 268 268 268 268 267 267 267 267 267 266 266 266 266 266 266 266 266 266 267 268 269 270 271 273 273 273 275 276 277 279 280 282 282 282 283 281 279 280 278 273 272 277 282 285 289 291 292 294 298 300 300 302 304 306 306 304 305 308 307 303 305 310 310 309
276 275 274 275 279 280 279 278 278 278 278 278 278 277 275 272 269 267 266 266 266 266 267 267 266 266 266 267 267 266 266 266 266 267 267 267 267 267 267 268 268 269 270 271 273 274 274 275 277 279 281 281 282 283 283 284 282 280 278 273 268 269 274 279 282 286 288 288 291 296 296 294 297 300 301 301 302 304 306 306 303 305 309 309 307
278 274 275 277 278 278 275 274 274 274 275 276 276 276 276 275 272 270 268 266 265 264 264 264 264 264 265 266 266 266 266 266 266 268 268 268 267 267 267 268 269 269 270 270 272 274 276 277 278 280 281 282 284 285 286 286 283 281 275 266 263 266 270 275 280 284 285 285 288 291 289 289 294 298 298 299 303 303 302 303 302 301 300 300 306
280 277 276 277 276 276 275 273 273 273 274 275 275 275 275 274 273 272 270 269 267 265 264 263 263 264 264 265 265 265 265 265 266 268 269 269 268 267 266 267 269 269 269 270 271 273 275 277 279 280 282 284 286 287 287 285 283 278 268 259 256 261 266 271 276 279 280 283 286 285 284 287 292 296 297 299 302 302 301 300 296 291 286 290 302
277 278 279 277 275 274 275 273 272 272 273 274 275 274 272 271 270 270 271 271 270 267 266 265 265 265 264 264 265 265 266 266 267 268 269 269 270 268 266 266 267 268 269 270 271 272 274 276 279 281 283 285 287 287 286 285 280 270 258 252 253 260 267 272 276 277 278 280 281 279 282 285 288 290 295 299 300 299 297 293 289 287 288 295 304
272 276 278 278 276 274 273 272 272 272 273 274 273 272 270 270 269 269 269 269 268 268 267 268 268 268 267 267 267 269 269 268 269 270 270 271 271 270 268 266 266 267 269 269 270 272 274 275 278 280 283 284 285 284 284 281 274 260 251 251 257 264 271 276 281 284 284 283 281 282 285 286 286 290 296 299 297 293 290 290 296 303 303 302 303
271 272 275 276 276 275 272 271 271 273 273 272 271 270 270 269 269 268 268 267 267 268 269 269 270 270 270 270 270 271 271 271 272 272 272 273 273 272 270 268 266 266 268 269 270 271 273 274 275 278 280 281 281 281 279 273 260 251 250 257 265 272 277 282 287 291 292 290 288 289 291 292 292 295 298 300 298 295 296 301 308 309 305 303 301
272 272 273 274 275 275 274 272 271 272 273 272 270 269 268 268 268 268 267 266 266 267 268 268 269 271 272 271 270 271 273 274 275 275 275 276 275 273 270 267 266 266 267 268 269 271 272 272 273 274 276 276 276 274 268 257 248 250 259 267 274 279 283 286 291 292 292 290 288 288 290 291 292 293 295 297 299 302 306 306 306 306 305 303 300
273 273 272 273 274 275 275 273 271 272 271 270 269 268 268 267 267 266 265 265 265 265 267 269 270 271 272 270 269 271 273 275 276 277 277 277 274 271 268 266 265 265 266 268 269 269 269 269 269 270 270 270 269 261 249 244 248 257 267 274 279 283 286 290 293 294 295 296 294 290 287 287 288 288 289 293 299 306 309 306 307 309 306 302 300
274 274 274 274 275 276 275 273 271 270 269 269 269 270 269 268 267 266 264 264 265 266 268 270 271 270 270 269 269 271 272 274 276 276 275 274 272 270 268 266 265 264 265 266 266 266 265 266 265 264 265 262 254 242 237 244 255 264 272 279 282 284 289 293 297 300 304 305 301 290 281 281 282 280 282 289 297 304 304 302 304 305 300 296 297
277 278 278 278 278 277 275 273 271 269 268 269 270 271 271 270 269 268 266 265 267 268 269 269 270 269 269 269 269 270 271 273 273 273 271 269 267 266 265 264 262 263 264 264 263 263 262 261 259 257 255 246 236 234 240 251 263 270 277 282 282 284 290 297 300 301 301 298 290 279 275 280 284 286 290 294 297 299 298 296 299 299 295 293 295
283 282 282 281 278 276 275 273 271 270 269 270 272 272 273 272 271 269 267 267 267 267 267 267 268 269 269 269 269 268 270 271 272 272 269 265 263 262 261 259 258 260 261 260 259 258 255 253 249 242 237 231 230 238 247 255 264 272 277 281 282 286 294 299 297 293 289 285 284 286 289 292 292 293 295 297 297 298 298 298 297 294 291 291 292
285 283 282 281 278 276 275 273 272 271 271 272 272 272 271 271 271 270 269 268 267 267 267 267 267 269 268 268 268 268 269 270 270 270 267 264 261 258 256 256 256 258 258 256 254 251 247 243 236 228 226 229 235 243 250 258 267 274 278 280 283 289 296 296 290 284 284 290 295 296 296 295 294 295 297 298 299 301 302 301 298 293 288 287 290
285 283 281 280 278 277 275 275 274 273 273 272 270 270 270 270 270 269 268 267 266 266 267 266 266 268 268 267 266 266 267 267 267 267 265 263 260 256 254 256 257 255 252 249 246 244 241 236 230 225 226 232 239 246 257 268 274 277 279 282 286 292 291 286 285 288 292 295 296 295 295 295 296 298 300 302 303 304 302 300 296 291 286 282 283
284 282 280 279 278 278 277 276 275 274 273 272 270 270 270 269 268 267 265 264 263 263 265 265 264 265 267 267 267 266 265 265 265 264 262 261 258 255 253 253 252 248 246 245 243 240 234 229 226 228 232 238 248 259 268 275 275 275 280 287 290 288 282 279 285 292 295 296 296 296 297 298 300 301 302 303 302 301 297 294 291 289 287 285 283
283 279 278 278 278 279 279 278 277 275 274 272 269 269 269 268 267 265 263 261 260 260 262 262 261 261 264 266 267 267 266 265 264 262 260 257 254 250 247 245 243 241 239 239 239 234 228 226 228 234 242 250 259 267 269 270 273 278 286 290 284 277 276 283 291 296 297 299 299 298 299 300 301 300 299 298 297 295 293 292 292 292 291 290 290
280 277 277 277 278 281 280 279 278 276 274 272 269 268 268 266 265 264 262 258 256 256 258 259 258 258 260 264 267 269 268 266 263 259 255 250 245 242 240 236 233 232 230 231 232 228 226 229 233 239 248 256 261 265 266 269 273 277 280 276 272 275 283 290 295 298 299 300 299 297 297 299 298 297 296 296 294 294 296 297 298 299 299 298 297
277 277 276 276 278 280 279 279 278 277 276 273 270 269 268 265 264 264 261 257 255 255 256 257 256 256 257 260 264 267 267 264 259 253 246 238 232 229 227 225 225 227 227 226 225 223 223 228 234 244 254 262 266 270 272 274 274 274 273 273 277 284 289 293 296 299 299 298 296 294 295 297 297 297 297 297 297 298 301 302 303 303 303 303 301
276 276 276 276 277 277 276 277 278 278 277 275 273 271 268 265 262 261 259 256 254 253 253 253 253 253 255 258 261 263 263 260 253 244 235 226 221 219 216 216 219 220 219 219 218 220 225 232 243 254 261 264 267 269 269 271 273 275 277 280 283 287 291 294 296 296 295 295 294 295 296 298 299 300 301 301 301 302 303 303 301 301 303 303 299
274 275 275 275 275 275 275 276 276 277 277 275 274 272 270 267 263 262 261 259 256 255 255 254 254 254 256 258 259 257 255 253 248 240 232 223 218 215 213 214 216 216 215 215 216 221 233 244 252 259 262 263 264 264 266 271 277 280 282 284 286 289 291 293 294 295 296 297 298 299 302 303 303 304 304 303 301 302 304 303 300 299 302 301 294
274 273 274 273 272 273 274 275 276 276 276 276 275 274 273 270 267 268 269 267 263 261 260 259 261 262 262 260 257 251 249 252 254 248 238 229 223 221 219 219 218 216 214 216 221 229 240 246 250 252 256 260 264 270 276 282 284 283 282 284 287 289 292 294 297 300 302 303 303 304 306 307 305 305 305 303 301 303 305 303 300 299 299 296 288
271 271 271 270 270 273 274 275 277 276 276 276 276 276 276 273 270 270 271 270 266 263 261 261 263 264 263 261 258 254 254 259 260 250 237 229 225 224 224 221 218 216 216 220 227 233 234 233 236 243 250 258 267 274 279 280 279 277 279 283 287 291 294 297 300 303 305 305 305 305 306 305 305 305 304 302 302 304 304 302 299 297 294 290 287
267 267 269 268 270 273 274 275 277 277 276 277 276 276 277 276 273 271 269 269 267 264 262 261 261 259 259 260 259 258 256 256 252 243 233 225 219 217 216 215 215 216 215 213 214 219 223 227 236 246 254 260 265 268 268 269 272 276 282 286 290 293 296 298 302 305 305 304 304 304 304 303 301 302 301 301 301 303 303 302 300 295 291 287 284
262 264 267 268 271 273 273 274 275 275 275 276 275 273 274 274 273 271 269 267 266 264 263 261 258 257 256 256 256 254 252 248 244 238 228 217 212 210 208 207 208 206 202 204 211 221 229 236 243 248 251 252 255 259 264 269 274 279 283 286 289 293 296 300 304 305 304 303 304 303 302 301 299 299 299 299 299 300 301 301 299 296 292 289 284
261 262 265 267 268 268 269 270 271 272 273 274 273 271 269 267 267 268 268 266 265 265 262 259 255 253 253 252 250 249 246 241 234 224 212 204 200 199 196 195 197 198 199 207 218 227 234 239 243 246 248 253 259 265 269 273 276 279 281 284 288 293 298 301 303 302 302 303 303 302 300 299 298 297 297 296 296 296 297 298 298 296 293 290 288
264 263 265 264 264 264 265 266 268 269 271 272 271 269 268 267 266 265 262 259 257 256 254 251 248 247 247 246 243 238 231 222 213 206 198 193 191 191 190 191 196 204 212 220 227 233 238 242 246 251 257 262 267 270 272 275 277 280 283 286 290 295 300 302 302 302 303 304 302 300 299 298 297 296 295 295 295 294 293 294 295 295 293 291 290
265 263 263 262 260 260 262 264 265 267 269 269 269 268 269 269 266 262 256 252 249 247 243 238 235 235 236 234 228 218 209 200 197 196 192 191 191 191 190 192 200 210 219 226 232 238 245 250 255 262 267 269 270 271 273 277 280 282 286 291 294 298 301 302 302 303 303 302 300 298 298 297 295 294 292 292 292 292 291 291 292 292 291 291 291
263 262 261 260 259 259 261 264 266 268 269 268 268 269 268 266 263 259 255 252 248 243 236 227 220 217 216 213 207 200 193 190 192 193 193 193 194 195 197 203 210 219 228 234 239 245 251 257 263 267 268 269 271 273 275 279 282 285 289 293 296 299 300 302 303 303 302 300 298 297 295 293 292 292 291 289 289 289 289 290 291 291 290 291 291
262 260 259 259 259 260 263 266 268 270 270 268 267 266 263 260 258 255 252 249 245 239 230 220 211 203 198 194 190 187 186 187 188 189 189 190 194 201 211 218 222 229 236 241 246 252 257 260 263 265 266 270 273 275 278 281 283 287 291 294 296 298 300 301 302 302 300 298 296 294 293 291 291 292 290 288 288 289 288 289 291 291 291 291 291
264 261 260 261 261 261 262 265 267 268 266 264 262 259 257 255 253 250 248 246 241 235 227 219 211 204 198 193 189 187 186 183 180 181 185 192 200 210 221 228 233 239 244 248 251 255 258 261 264 265 268 272 275 277 280 283 286 290 293 295 297 298 299 300 301 300 299 296 295 294 293 291 291 292 289 287 287 288 289 290 291 291 293 293 291
266 263 261 260 260 261 262 263 263 262 260 257 256 253 251 249 247 245 244 242 238 233 227 220 215 212 207 201 195 192 191 189 187 189 195 203 211 220 227 234 240 246 249 251 253 256 259 263 266 269 272 275 278 281 284 287 290 293 296 297 297 298 299 300 301 301 299 297 296 295 294 292 292 293 290 286 285 286 288 289 290 290 291 292 292
267 264 260 258 258 260 261 260 258 256 254 252 251 250 247 246 245 244 242 239 236 233 228 223 220 218 214 209 204 201 199 198 199 203 207 213 222 228 233 240 246 250 253 255 256 259 263 266 268 272 276 279 282 285 286 289 293 295 297 297 297 298 299 300 300 300 299 297 296 295 293 293 294 294 290 287 286 287 288 289 289 289 289 290 291
268 263 260 258 258 258 257 255 253 253 252 251 251 249 248 247 246 245 242 239 236 234 231 228 225 221 218 215 213 211 209 209 210 214 218 223 229 234 238 245 249 250 253 256 257 261 266 270 273 277 280 282 284 286 288 290 293 295 296 297 297 297 298 299 300 300 299 298 297 296 294 294 294 293 290 289 289 289 288 288 289 290 290 289 291
264 260 258 257 257 255 254 254 255 255 254 252 251 250 249 249 247 244 241 238 235 233 230 227 223 219 218 217 214 212 212 214 216 220 223 228 233 238 242 246 249 251 254 257 261 266 271 274 277 280 282 283 285 286 288 291 295 296 296 296 296 296 297 299 300 301 300 299 298 297 295 295 294 291 290 291 291 290 290 289 290 291 291 291 291
262 259 258 258 257 256 256 257 258 257 254 253 252 251 250 248 245 242 239 235 232 230 225 219 216 212 209 207 206 206 209 214 219 224 229 233 239 244 248 250 254 257 260 264 268 272 275 277 280 282 283 283 284 286 288 292 295 295 295 295 295 296 297 299 300 301 301 299 299 297 296 295 294 292 291 292 292 291 291 291 291 291 291 291 292
262 260 260 259 259 258 258 258 257 256 255 254 252 250 248 245 241 238 235 230 227 225 221 217 211 201 192 191 196 201 207 216 223 228 236 242 247 253 257 259 262 266 269 273 275 277 279 282 284 285 285 285 286 288 290 293 294 293 294 296 296 296 298 299 301 302 300 298 297 297 296 295 294 293 292 293 293 293 292 291 291 292 291 291 291
262 260 259 258 257 257 257 257 255 254 254 251 247 245 242 239 236 232 228 224 221 217 213 208 201 193 188 190 196 202 210 220 228 236 243 249 254 259 263 265 269 273 276 279 281 282 284 286 287 288 289 289 289 291 293 295 295 294 295 296 296 297 300 302 302 301 299 296 295 296 296 295 294 293 293 294 294 293 292 292 292 291 291 290 290
261 258 257 258 258 258 258 256 254 252 250 245 242 238 233 229 226 222 218 214 208 200 193 187 184 186 190 195 202 210 217 226 234 240 247 253 258 263 266 269 274 278 282 285 286 288 290 291 292 293 293 293 293 294 295 296 296 296 295 296 298 299 303 305 303 300 297 295 295 295 296 296 295 294 294 295 295 293 292 292 291 290 289 290 290
264 262 261 262 262 261 259 255 250 246 243 240 236 230 221 215 209 202 197 191 181 175 171 170 173 182 190 195 204 215 222 229 237 243 249 254 259 263 268 274 279 283 286 289 292 294 296 297 297 297 297 297 297 298 298 298 298 298 298 298 300 302 304 305 303 300 299 299 298 297 297 296 295 295 295 295 294 293 293 292 292 291 290 290 290
266 265 263 262 260 258 255 251 244 237 233 229 223 214 205 196 187 181 175 168 163 161 163 167 173 180 187 194 205 215 224 233 242 248 253 258 264 268 273 279 284 288 291 294 297 299 301 301 300 299 299 300 300 300 300 300 300 300 301 301 302 304 305 304 302 300 301 301 300 299 298 296 295 296 295 295 294 294 293 293 293 293 292 291 290
264 262 260 259 257 253 251 248 241 233 226 215 201 192 184 177 172 167 162 159 158 160 164 170 176 182 189 198 208 218 228 238 246 254 260 266 273 279 284 288 293 296 298 300 302 303 303 304 304 303 303 303 302 302 303 303 303 303 304 304 304 303 302 301 302 304 307 307 304 302 299 297 295 294 294 294 294 294 293 292 292 292 291 290 290
264 261 258 255 253 252 251 248 238 228 219 202 186 177 171 167 165 162 159 157 158 159 162 171 178 185 196 207 217 228 240 249 256 264 272 279 284 288 293 297 299 300 302 303 304 306 307 307 307 307 306 306 306 306 307 307 307 307 307 306 305 304 305 307 309 311 310 307 302 299 296 294 293 293 294 295 295 294 293 292 292 292 291 290 290
263 257 251 248 246 245 241 230 215 205 197 187 178 173 167 164 161 157 153 153 154 157 164 174 182 192 209 224 235 246 256 265 272 277 284 290 293 296 299 302 303 305 307 307 308 310 311 311 311 310 310 310 311 311 311 311 310 309 309 308 308 309 310 309 306 303 301 300 298 296 296 295 295 295 296 296 296 295 294 292 292 291 291 290 291